AE7VB Weather Reports


Display with metric or nautical units.
time (UTC)temp
F
wind
direction
speed
MPH
gust
MPH
rain 1hr
in
rain 24hr
in
rain mn
in
humidity
%
barometer
mb
20230203065822 34 132 2.0 13.0 0.00 0.00 0.00 75 1023.3
20230203064821 34 20 6.0 11.0 0.00 0.00 0.00 72 1023.6
20230203063820 34 10 3.0 6.0 0.00 0.00 0.00 71 1023.2
20230203062819 35 160 3.0 7.0 0.00 0.00 0.00 71 1023.5
20230203061817 34 183 3.0 8.0 0.00 0.00 0.00 72 1023.4
20230203060819 34 158 2.0 9.0 0.00 0.00 0.00 72 1023.4
20230203055815 34 138 3.0 9.0 0.00 0.00 0.00 75 1023.2
20230203054815 33 43 4.0 9.0 0.00 0.00 0.00 78 1023.1
20230203053743 33 76 4.0 9.0 0.00 0.00 0.00 79 1023.1
20230203052711 33 90 2.0 8.0 0.00 0.00 0.00 80 1023.1
20230203051710 33 51 2.0 6.0 0.00 0.00 0.00 79 1022.9
20230203050708 33 90 2.0 6.0 0.00 0.00 0.00 77 1022.5
20230203045707 33 71 3.0 7.0 0.00 0.00 0.00 76 1022.5
20230203044706 34 81 3.0 6.0 0.00 0.00 0.00 75 1022.5
20230203043634 34 106 3.0 7.0 0.00 0.00 0.00 75 1022.5
20230203042633 34 114 4.0 9.0 0.00 0.00 0.00 75 1022.4
20230203041632 34 39 3.0 9.0 0.00 0.00 0.00 76 1022.3
20230203040631 34 169 2.0 5.0 0.00 0.00 0.00 75 1022.1
20230203035630 35 51 1.0 5.0 0.00 0.00 0.00 74 1022.1
20230203034630 35 31 2.0 9.0 0.00 0.00 0.00 73 1022.1
20230203033558 36 46 3.0 11.0 0.00 0.00 0.00 72 1022.1
20230203032556 36 170 2.0 11.0 0.00 0.00 0.00 74 1022.1
20230203031555 36 39 3.0 10.0 0.00 0.00 0.00 73 1022.1
20230203030555 36 27 5.0 14.0 0.00 0.00 0.00 73 1022.5
20230203025553 36 36 9.0 14.0 0.00 0.00 0.00 74 1022.1
20230203024553 36 243 2.0 13.0 0.00 0.00 0.00 70 1022.4
20230203023552 36 49 7.0 12.0 0.00 0.00 0.00 68 1022.1
20230203022551 37 24 3.0 5.0 0.00 0.00 0.00 63 1022.6
20230203021549 38 311 2.0 8.0 0.00 0.00 0.00 60 1022.6
20230203020517 38 99 5.0 10.0 0.00 0.00 0.00 60 1022.6
20230203015516 39 46 4.0 13.0 0.00 0.00 0.00 60 1022.7
20230203014515 39 89 7.0 13.0 0.00 0.00 0.00 59 1023.1
20230203013514 38 11 4.0 11.0 0.00 0.00 0.00 59 1023.0
20230203012513 38 75 7.0 11.0 0.00 0.00 0.00 60 1022.6
20230203011512 38 54 7.0 10.0 0.00 0.00 0.00 61 1022.9
20230203010440 38 95 5.0 10.0 0.00 0.00 0.00 61 1023.0
20230203005408 38 39 4.0 9.0 0.00 0.00 0.00 61 1022.7
20230203004407 38 43 5.0 9.0 0.00 0.00 0.00 61 1022.7
20230203003406 38 42 1.0 6.0 0.00 0.00 0.00 64 1022.7
20230203002405 39 44 3.0 8.0 0.00 0.00 0.00 66 1022.8
20230203001404 39 238 3.0 8.0 0.00 0.00 0.00 62 1023.3
20230203000403 40 16 4.0 8.0 0.00 0.00 0.00 65 1023.1
20230202235402 40 55 2.0 6.0 0.00 0.00 0.00 65 1023.2
20230202234401 41 103 3.0 6.0 0.00 0.00 0.00 63 1023.6
20230202233329 41 71 3.0 6.0 0.00 0.00 0.00 65 1023.6
20230202232328 41 54 2.0 6.0 0.00 0.00 0.00 64 1023.6
20230202231256 41 33 2.0 6.0 0.00 0.00 0.00 65 1023.6
20230202230255 40 88 2.0 6.0 0.00 0.00 0.00 63 1023.5
20230202225223 40 99 4.0 6.0 0.00 0.00 0.00 63 1023.5
20230202224222 40 107 4.0 6.0 0.00 0.00 0.00 65 1023.5
20230202223221 39 102 2.0 6.0 0.00 0.00 0.00 66 1023.4
20230202222220 39 121 4.0 6.0 0.00 0.00 0.00 65 1023.3
20230202221148 38 81 2.0 5.0 0.00 0.00 0.00 68 1023.3
20230202220147 38 123 2.0 6.0 0.00 0.00 0.00 69 1023.6
20230202215146 38 69 2.0 6.0 0.00 0.00 0.00 71 1023.2
20230202214145 37 91 3.0 8.0 0.00 0.00 0.00 72 1023.5
20230202213144 37 88 3.0 8.0 0.00 0.00 0.00 72 1023.4
20230202212143 37 94 3.0 8.0 0.00 0.00 0.00 72 1023.4
20230202211143 36 52 4.0 8.0 0.00 0.00 0.00 72 1023.3
20230202210142 36 79 3.0 8.0 0.00 0.00 0.00 73 1023.6
20230202205140 36 91 3.0 8.0 0.00 0.00 0.00 74 1023.7
20230202204108 36 93 3.0 7.0 0.00 0.00 0.00 74 1024.1
20230202203107 35 102 4.0 6.0 0.00 0.00 0.00 75 1024.4
20230202202106 35 49 3.0 7.0 0.00 0.00 0.00 75 1024.4
20230202201105 35 52 5.0 8.0 0.00 0.00 0.00 75 1024.4
20230202200105 34 55 4.0 8.0 0.00 0.00 0.00 77 1024.4
20230202195104 34 55 5.0 7.0 0.00 0.00 0.00 78 1024.7
20230202194103 34 75 3.0 8.0 0.00 0.00 0.00 77 1024.6
20230202193031 33 59 4.0 8.0 0.00 0.00 0.00 77 1024.9
20230202191959 33 64 3.0 8.0 0.00 0.00 0.00 78 1024.9
20230202190958 32 79 3.0 7.0 0.00 0.00 0.00 78 1024.8
20230202185958 32 68 3.0 5.0 0.00 0.00 0.00 78 1025.1
20230202184956 32 61 2.0 6.0 0.00 0.00 0.00 78 1025.1
20230202183853 31 103 3.0 7.0 0.00 0.00 0.00 78 1025.0
20230202182852 31 83 3.0 7.0 0.00 0.00 0.00 78 1025.4
20230202181851 30 57 3.0 7.0 0.00 0.00 0.00 79 1025.0
20230202180850 30 92 2.0 7.0 0.00 0.00 0.00 81 1025.0
20230202175818 29 50 3.0 9.0 0.00 0.00 0.00 82 1024.9
20230202174817 29 24 6.0 9.0 0.00 0.00 0.00 82 1024.9
20230202173816 28 54 3.0 7.0 0.00 0.00 0.00 82 1024.9
20230202172815 28 50 2.0 7.0 0.00 0.00 0.00 82 1024.9
20230202171814 27 22 2.0 6.0 0.00 0.00 0.00 83 1024.9
20230202170813 27 8 2.0 4.0 0.00 0.00 0.00 83 1024.8
20230202165813 27 7 1.0 4.0 0.00 0.00 0.00 83 1024.9
20230202164811 26 2 2.0 4.0 0.00 0.00 0.00 85 1024.8
20230202163739 26 35 2.0 3.0 0.00 0.00 0.00 86 1024.7
20230202162738 25 35 2.0 4.0 0.00 0.00 0.00 88 1024.6
20230202161736 24 35 1.0 4.0 0.00 0.00 0.00 89 1024.5
20230202160736 23 35 1.0 4.0 0.00 0.00 0.00 90 1024.5
20230202155735 22 247 0.0 2.0 0.00 0.00 0.00 90 1024.4
20230202154702 22 248 2.0 2.0 0.00 0.00 0.00 89 1024.2
20230202153702 21 248 1.0 3.0 0.00 0.00 0.00 89 1024.2
20230202152701 21 247 1.0 4.0 0.00 0.00 0.00 89 1024.2
20230202151700 21 153 2.0 3.0 0.00 0.00 0.00 89 1023.8
20230202150659 21 136 1.0 4.0 0.00 0.00 0.00 89 1023.8
20230202145627 21 146 1.0 4.0 0.00 0.00 0.00 89 1023.8
20230202144627 21 29 1.0 3.0 0.00 0.00 0.00 89 1023.9
20230202143452 21 90 1.0 3.0 0.00 0.00 0.00 89 1023.9
20230202142349 21 91 1.0 3.0 0.00 0.00 0.00 89 1023.9
20230202141317 20 112 1.0 3.0 0.00 0.00 0.00 88 1023.9
20230202140245 20 101 2.0 4.0 0.00 0.00 0.00 88 1023.9
20230202135244 20 88 3.0 4.0 0.00 0.00 0.00 87 1024.0
20230202134243 21 90 2.0 4.0 0.00 0.00 0.00 88 1024.0
20230202133243 21 90 3.0 3.0 0.00 0.00 0.00 87 1024.4
20230202132211 21 90 1.0 3.0 0.00 0.00 0.00 87 1024.5
20230202131210 21 90 2.0 4.0 0.00 0.00 0.00 87 1024.5
20230202130209 21 90 2.0 4.0 0.00 0.00 0.00 87 1024.2
20230202125105 21 90 3.0 4.0 0.00 0.00 0.00 87 1024.2
20230202124105 21 90 3.0 4.0 0.00 0.00 0.00 86 1024.2
20230202123103 21 89 3.0 4.0 0.00 0.00 0.00 86 1024.2
20230202122102 21 89 1.0 3.0 0.00 0.00 0.00 85 1024.2
20230202121102 22 89 1.0 2.0 0.00 0.00 0.00 85 1024.4
20230202113631 22 30 2.0 4.0 0.00 0.00 0.00 87 1024.5
20230202112631 22 56 3.0 4.0 0.00 0.00 0.00 86 1024.2
20230202111630 22 59 2.0 6.0 0.00 0.00 0.00 85 1024.2
20230202110629 22 145 2.0 6.0 0.00 0.00 0.00 86 1024.3
20230202105627 22 113 2.0 3.0 0.00 0.00 0.00 87 1024.3
20230202104555 23 113 2.0 6.0 0.00 0.00 0.00 88 1024.3
20230202103554 23 113 1.0 6.0 0.00 0.00 0.00 89 1024.6
20230202102553 22 98 2.0 5.0 0.00 0.00 0.00 87 1024.6
20230202101552 22 40 2.0 3.0 0.00 0.00 0.00 88 1024.3
20230202100551 22 39 1.0 2.0 0.00 0.00 0.00 88 1024.2
20230202095550 22 39 1.0 2.0 0.00 0.00 0.00 88 1024.2
20230202094549 22 39 1.0 3.0 0.00 0.00 0.00 87 1024.1
20230202093517 22 40 1.0 3.0 0.00 0.00 0.00 87 1024.1
20230202092517 22 245 1.0 3.0 0.00 0.00 0.00 86 1024.0
20230202091516 22 246 1.0 4.0 0.00 0.00 0.00 86 1024.0
20230202090515 22 247 3.0 4.0 0.00 0.00 0.00 85 1023.8
20230202085513 23 62 1.0 4.0 0.00 0.00 0.00 85 1023.8
20230202084512 23 62 1.0 4.0 0.00 0.00 0.00 84 1023.8
20230202083512 24 62 1.0 3.0 0.00 0.00 0.00 84 1023.8
20230202082511 24 255 1.0 4.0 0.00 0.00 0.00 84 1023.9
20230202081439 25 50 2.0 5.0 0.00 0.00 0.00 84 1024.0
20230202080407 25 51 2.0 7.0 0.00 0.00 0.00 85 1024.0
20230202075405 25 55 4.0 6.0 0.00 0.00 0.00 86 1023.7
20230202074403 25 100 2.0 7.0 0.00 0.00 0.00 85 1024.0
20230202073402 25 25 3.0 5.0 0.00 0.00 0.00 85 1024.0
20230202072330 25 22 3.0 4.0 0.00 0.00 0.00 85 1024.0
20230202071329 25 5 1.0 3.0 0.00 0.00 0.00 85 1024.0
20230202070328 25 151 2.0 4.0 0.00 0.00 0.00 83 1024.0